Regional Weather Roundup
Issued by NWS

Home | Current Version | Previous Version | Graphics & Text | Print | Product List | Glossary On
Versions: 1 2 3 4 5 6 7 8 9 10 11 12 13 14 15 16 17 18 19 20 21 22 23 24 25 26 27 28 29 30 31 32 33 34 35 36 37 38 39 40 41 42 43 44 45 46 47 48 49 50
441
ASUS43 KDTX 240410
RWRMI
MICHIGAN HOURLY REGIONAL WEATHER ROUNDUP
NATIONAL WEATHER SERVICE DETROIT/PONTIAC MI
1100 PM EST THU NOV 23 2017

NOTE: "FAIR" INDICATES FEW OR NO CLOUDS BELOW 12,000 FEET WITH NO
SIGNIFICANT WEATHER AND/OR OBSTRUCTION TO VISIBILITY.

MIZ047>049-052>055-059>063-066>070-074>076-081>083-240500-
SOUTHEAST LOWER MICHIGAN

CITY           SKY/WX    TMP DP  RH WIND       PRES   REMARKS
ADRIAN         CLEAR     30  24  78 SW5       29.97F WCI  25
ALMA           CLOUDY    34  27  75 S7        29.89F WCI  28
ANN ARBOR      CLOUDY    32  25  75 S6        29.95F WCI  26
BAD AXE        CLEAR     30  22  72 SW6       29.90F WCI  24
CARO           CLEAR     30  23  75 CALM      29.90F
DETROIT CITY   CLOUDY    38  25  59 SW8       29.96F WCI  32
DETROIT        CLOUDY    36  27  69 S9        29.97F WCI  29
FLINT          CLEAR     35  22  58 S8        29.92F WCI  29
GROSSE ILE     CLOUDY    38  28  67 SW7       29.96F WCI  32
HILLSDALE      CLEAR     30  21  69 S5        29.94F WCI  25
HOWELL         CLEAR     34  24  68 S5        29.92F WCI  30

CITY           SKY/WX    TMP DP  RH WIND       PRES   REMARKS
JACKSON        MOCLDY    34  23  64 S7        29.93F WCI  28
LAMBERTVILLE   PTCLDY    36  27  69 S5        29.98F WCI  32
LANSING        CLEAR     35  23  61 S9        29.92F WCI  28
LAPEER         FAIR      33  24  68 SW6       29.92F WCI  27
MASON          CLEAR     35  24  64 S5        29.91F WCI  31
MONROE           N/A     35  28  75 S6        29.98F WCI  30
MT. CLEMENS    CLOUDY    39  25  58 SW8       29.94F WCI  33
PONTIAC        CLOUDY    36  24  62 SW6       29.93F WCI  31
PORT HOPE        N/A     34  22  61 SW5       29.88F WCI  30
PORT HURON     CLEAR     34  23  64 SW5       29.95S WCI  30
TRI CITIES     CLEAR     35  25  66 S7        29.91F WCI  29
MIDLAND        FAIR      31  28  92 CALM      29.89F
TROY           CLOUDY    39  25  57 SW7       29.97F WCI  34
SAGINAW HB     CLEAR     34  25  69 S8        29.90F WCI  27
$$
MIZ043>046-050>051-056>058-064>065-071>073-077>080-240500-
SOUTHWEST LOWER MICHIGAN

CITY           SKY/WX    TMP DP  RH WIND       PRES   REMARKS
BATTLE CREEK   CLEAR     34  24  67 S14       29.92F WCI  25
BENTON HARBOR  CLEAR     36  26  67 S6        29.93S WCI  31
BIG RAPIDS     CLOUDY    28  26  90 CALM      29.87R
COLDWATER      CLEAR     32  22  66 CALM      29.95F
FREMONT        FAIR      30  28  92 CALM      29.88R
HOLLAND        CLEAR     33  25  72 S7        29.90F WCI  27
GRAND RAPIDS   CLOUDY    33  26  75 S9        29.89F WCI  25
IONIA          FAIR      33  25  70 S8        29.88F WCI  26
KALAMAZOO      CLEAR     33  24  69 S8        29.92F WCI  26
LUDINGTON      CLEAR     27  24  89 CALM      29.86F
MARSHALL       CLEAR     33  22  65 S7        29.92F WCI  27
MOUNT PLEASANT CLOUDY    33  28  80 S3        29.87F
MUSKEGON       PTCLDY    31  25  78 SE3       29.90S
SOUTH HAVEN    CLEAR     35  26  71 S6        29.92R WCI  30
$$
MIZ016>042-240500-
NORTHERN LOWER MICHIGAN

CITY           SKY/WX    TMP DP  RH WIND       PRES   REMARKS
ALPENA         PTCLDY    31  26  82 SW3       29.85F
BEAVER ISLAND  MOCLDY    38  30  72 S8        29.78F WCI  33
BELLAIRE       CLOUDY    32  28  86 S6        29.85S WCI  26
CADILLAC       CLOUDY    28  25  90 SW7       29.84R WCI  21
CHARLEVOIX     CLEAR     34  28  80 S8        29.84F WCI  27
FRANKFORT      CLOUDY    33  27  78 SE5       29.83F WCI  28
GAYLORD        CLOUDY    28  22  78 SW6       29.81F WCI  22
GRAYLING       CLOUDY    25  23  90 CALM      29.84F
HARBOR SPRINGS CLEAR     32  27  80 S3        29.81F
HOUGHTON LAKE  PTCLDY    30  24  78 SW5       29.85F WCI  25
MANISTEE       CLEAR     29  25  85 VRB5      29.84F WCI  24
OSCODA         CLEAR     30  23  77 SW3       29.86F
PELLSTON       CLEAR     33  26  75 SE3       29.81F
ROGERS CITY    CLEAR     32  26  77 SW7       29.83F WCI  26
TRAVERSE CITY  CLOUDY    32  25  75 VRB3      29.83F
$$
MIZ007>008-015-240500-
EASTERN UPPER MICHIGAN

CITY           SKY/WX    TMP DP  RH WIND       PRES   REMARKS
KINROSS        PTCLDY    28  23  81 S7        29.79F WCI  21
MACKINAC ISLAN MOCLDY    36  29  75 S7        29.80S WCI  31
NEWBERRY       CLOUDY    31  27  85 S6        29.74F WCI  25
S. S. MARIE    MOCLDY    33  23  66 S7        29.77F WCI  27
MUNISING         N/A     34  25  69 S9        29.69F WCI  27
$$
MIZ004>006-011>014-085-240500-
CENTRAL UPPER MICHIGAN

CITY           SKY/WX    TMP DP  RH WIND       PRES   REMARKS
MANISTIQUE     CLOUDY    38  23  55 SW13      29.75F WCI  30
ESCANABA       CLOUDY    38  28  67 SW9       29.74F WCI  31
MENOMINEE      CLOUDY    37  27  67 SW9       29.76F WCI  30
SAWYER-GWINN   MIX PCPN  33  25  72 SW13      29.67F WCI  23
$$
MIZ001>003-009>011-084-240500-
WESTERN UPPER MICHIGAN

CITY           SKY/WX    TMP DP  RH WIND       PRES   REMARKS
IRON MOUNTAIN  CLOUDY    35  22  58 S8        29.69F WCI  29
HOUGHTON       CLOUDY    34  24  67 S8        29.59F WCI  27
COPPER HARBOR    N/A     39  28  64 SW8       29.61F WCI  33
IRONWOOD       CLOUDY    37  25  61 SW12      29.59F WCI  29
$$

ABBREVIATIONS USED IN REMARKS
   TC - TEMPERATURE IN CELSIUS
  WCI - WIND CHILL INDEX
   HX - HEAT INDEX
  VSB - VISIBILITY





USA.gov is the U.S. government's official web portal to all federal, state and local government web resources and services.